[[{"header":{"parameterUnit":"m.s-1","parameterCategory":1,"la1":30.2991,"la2":30.254,"lo1":-89.0895,"lo2":-89.0444,"dy":0.0017,"dx":0.0017,"nx":28,"ny":28,"refTime":"2024-11-22T09:00:00:Z","depth":0,"parameterNumber":2,"parameterNumberName":"U-component_of_WINDS"},"data":[0,0,0,0,0,0,0,0,0,0,0,0,0,0,0,0,0,0,0,0,0,0,0,0,0,0,0,0,0,0,0,0,0,0,0,0,0,0,0,0,0,0,0,0,0,0,0,0,0,0,0,0,0,0,0,0,0,0,-1.0873,-1.0872,0,-1.082,-1.0819,-1.0819,-1.0736,-1.0734,-1.0733,-1.0731,-1.0678,-1.0678,-1.0678,0,0,0,0,0,0,0,0,0,0,0,0,0,-1.0904,-1.0904,-1.0873,-1.0872,-1.0872,-1.082,-1.0819,-1.0819,-1.0736,-1.0734,-1.0732,-1.0731,-1.0678,-1.0678,-1.0678,0,0,0,0,0,0,0,0,0,0,0,0,0,-1.0875,-1.0904,-1.0873,-1.0824,-1.0819,-1.082,-1.0819,-1.0818,-1.0736,-1.0734,-1.0732,-1.073,-1.0678,-1.0678,-1.0678,-1.0722,0,0,-1.0678,-1.0678,0,0,0,0,0,0,0,0,-1.0877,-1.0874,-1.0832,-1.0828,-1.0822,-1.0782,-1.0811,-1.0786,-1.0737,-1.0768,-1.0731,-1.0729,-1.0714,-1.0711,-1.0706,-1.072,-1.0718,-1.0678,-1.0678,-1.0678,-1.0678,0,0,0,0,0,0,0,-1.0879,-1.0876,-1.0852,-1.0832,-1.0826,-1.0805,-1.0799,-1.0806,-1.0754,-1.0765,-1.0759,-1.0754,-1.0711,-1.0706,-1.0704,-1.0717,-1.0678,-1.0678,-1.0678,-1.0678,-1.0765,-1.0767,0,0,0,0,0,0,-1.0888,-1.0878,-1.0854,-1.085,-1.0844,-1.0807,-1.0799,-1.0797,-1.0754,-1.0745,-1.0756,-1.075,-1.0708,-1.0704,-1.0702,-1.0752,-1.0678,-1.0678,-1.0678,-1.0763,-1.0766,-1.0768,0,0,0,0,0,0,-1.0889,-1.0887,-1.0856,-1.0863,-1.0857,-1.0809,-1.0807,-1.0797,-1.0792,-1.0747,-1.0738,-1.076,-1.0706,-1.0702,-1.0718,-1.0749,-1.0678,-1.0677,-1.076,-1.0764,-1.0767,-1.0851,0,0,0,0,0,0,-1.089,-1.0888,-1.0904,-1.0864,-1.0857,-1.0873,-1.0809,-1.0798,-1.0792,-1.0785,-1.0749,-1.0741,-1.0704,-1.0719,-1.0718,-1.0747,-1.0677,-1.0757,-1.0762,-1.0766,-1.0846,-1.0857,-1.0867,0,0,0,0,0,-1.0892,-1.0929,-1.0905,-1.0902,-1.0876,-1.0874,-1.0871,-1.0827,-1.0795,-1.0811,-1.0782,-1.0742,-1.0746,-1.0721,-1.072,-1.0749,-1.0755,-1.076,-1.0766,-1.0841,-1.0855,-1.0867,0,0,0,0,0,0,-1.0974,-1.0923,-1.0895,-1.0921,-1.0903,-1.086,-1.0879,-1.0844,-1.0834,-1.0827,-1.0774,-1.0767,-1.079,-1.0771,-1.0744,-1.0791,-1.0744,-1.0749,-1.0802,-1.0815,-1.0826,-1.0829,-1.0677,0,0,0,0,0,-1.0996,-1.0998,-1.0954,-1.0981,-1.0973,-1.0928,-1.0926,-1.0894,-1.0873,-1.0865,-1.0836,-1.0818,-1.0815,-1.0814,-1.0809,-1.0843,-1.0834,-1.0863,-1.0874,-1.0883,-1.0888,-1.0905,-1.0917,-1.0786,-1.0786,-1.0786,0,0,-1.104,-1.1012,-1.1017,-1.0997,-1.0979,-1.0983,-1.0922,-1.0929,-1.0931,-1.0866,-1.0879,-1.0858,-1.0834,-1.0859,-1.0869,-1.0844,-1.0922,-1.089,-1.0897,-1.0897,-1.0912,-1.0924,-1.0935,-1.0789,-1.0789,-1.0788,0,0,-1.1121,-1.1101,-1.1121,-1.1105,-1.1078,-1.1048,-1.1054,-1.1017,-1.1,-1.1013,-1.0963,-1.0966,-1.0962,-1.0947,-1.0939,-1.1017,-1.0979,-1.1017,-1.1073,-1.109,-1.1101,-1.111,-1.1138,-1.1148,-1.1022,-1.1022,-1.1022,0,-1.1179,-1.1183,-1.1136,-1.1147,-1.1139,-1.108,-1.1101,-1.1087,-1.1061,-1.1057,-1.103,-1.1024,-1.1004,-1.1025,-1.1044,-1.104,-1.1044,-1.102,-1.1103,-1.1112,-1.1119,-1.1145,-1.1156,-1.1027,-1.1026,-1.1026,-1.1025,0,-1.1256,-1.126,-1.1279,-1.1255,-1.125,-1.1266,-1.1222,-1.1223,-1.1192,-1.1165,-1.1179,-1.1153,-1.1141,-1.1144,-1.1114,-1.1162,-1.1147,-1.1113,-1.1065,-1.1137,-1.1161,-1.117,-1.1033,-1.1032,-1.103,-1.1029,0,0,-1.1387,-1.1338,-1.1346,-1.1334,-1.1301,-1.1303,-1.1317,-1.1305,-1.1307,-1.1292,-1.1302,-1.13,-1.1268,-1.1259,-1.1227,-1.1242,-1.1306,-1.1205,-1.1204,-1.1225,-1.1357,-1.1383,-1.1395,-1.1281,-1.1283,-1.1284,-1.1359,0,-1.1462,-1.1481,-1.144,-1.1469,-1.1473,-1.1417,-1.1429,-1.141,-1.1386,-1.1386,-1.1359,-1.1359,-1.1316,-1.1311,-1.1323,-1.1296,-1.1332,-1.129,-1.129,-1.1291,-1.1297,-1.1407,-1.1434,-1.1506,-1.1368,-1.1369,-1.137,0,-1.1551,-1.154,-1.157,-1.1536,-1.1536,-1.1547,-1.1534,-1.1534,-1.1512,-1.1494,-1.1484,-1.1447,-1.1458,-1.1413,-1.1428,-1.14,-1.1398,-1.1385,-1.1387,-1.1384,-1.1335,-1.1408,-1.1528,-1.1538,-1.1384,-1.1383,-1.1382,0,-1.1644,-1.1637,-1.1653,-1.1645,-1.1606,-1.1615,-1.16,-1.1576,-1.1572,-1.1561,-1.1558,-1.1548,-1.1543,-1.1537,-1.1498,-1.1469,-1.1518,-1.147,-1.1503,-1.1504,-1.1515,-1.1515,-1.1636,-1.1515,-1.1515,-1.1515,-1.1515,0,-1.1732,-1.1752,-1.1694,-1.1705,-1.1726,-1.168,-1.1702,-1.1681,-1.1661,-1.1666,-1.1618,-1.1625,-1.1573,-1.1575,-1.1545,-1.1562,-1.156,-1.1546,-1.1537,-1.155,-1.1551,-1.1547,-1.1541,-1.1518,-1.1517,-1.1517,-1.1516,0,-1.1838,-1.18,-1.1815,-1.1777,-1.1768,-1.1786,-1.1753,-1.1762,-1.1735,-1.1743,-1.1742,-1.17,-1.1699,-1.166,-1.1651,-1.1631,-1.1661,-1.1644,-1.1668,-1.1662,-1.1698,-1.1695,-1.182,-1.1834,-1.1705,-1.1707,-1.1708,0,-1.1896,-1.191,-1.1874,-1.1874,-1.1861,-1.1862,-1.1858,-1.1813,-1.1811,-1.1788,-1.18,-1.1795,-1.1788,-1.179,-1.1758,-1.1752,-1.1734,-1.1778,-1.1732,-1.1744,-1.1734,-1.1733,-1.1735,-1.1787,-1.1789,-1.179,-1.1791,0,-1.2003,-1.1984,-1.1979,-1.1969,-1.1966,-1.1956,-1.1942,-1.1946,-1.1896,-1.1897,-1.1895,-1.189,-1.1881,-1.1877,-1.1865,-1.1849,-1.1813,-1.1806,-1.1814,-1.1826,-1.1839,-1.1833,-1.1694,-1.1803,-1.1802,-1.1801,-1.1801,-1.18,-1.2086,-1.2097,-1.2073,-1.207,-1.2056,-1.2045,-1.2051,-1.2025,-1.2023,-1.2012,-1.1986,-1.1989,-1.1968,-1.1947,-1.1935,-1.1937,-1.1914,-1.1925,-1.1928,-1.1931,-1.1938,-1.184,-1.1934,-1.1934,-1.1934,-1.1933,-1.1933,0,-1.219,-1.2173,-1.2171,-1.2154,-1.2152,-1.2118,-1.2102,-1.2103,-1.2106,-1.2089,-1.2084,-1.2083,-1.2079,-1.2048,-1.2041,-1.2049,-1.2032,-1.2048,-1.2047,-1.2044,-1.1958,-1.1953,-1.2062,-1.2062,-1.2062,-1.2062,-1.2062,-1.2062,-1.2244,-1.226,-1.2238,-1.2247,-1.2229,-1.2231,-1.2225,-1.2215,-1.2202,-1.2202,-1.2199,-1.2179,-1.2157,-1.2148,-1.2143,-1.2134,-1.2134,-1.2156,-1.2142,-1.2062,-1.205,-1.2038,-1.2032,-1.2157,-1.2157,-1.2227,-1.2228,-1.2228]},{"header":{"parameterUnit":"m.s-1","parameterCategory":1,"la1":30.2991,"la2":30.254,"lo1":-89.0895,"lo2":-89.0444,"dy":0.0017,"dx":0.0017,"nx":28,"ny":28,"refTime":"2024-11-22T09:00:00:Z","depth":0,"parameterNumber":3,"parameterNumberName":"V-component_of_WINDS"},"data":[0,0,0,0,0,0,0,0,0,0,0,0,0,0,0,0,0,0,0,0,0,0,0,0,0,0,0,0,0,0,0,0,0,0,0,0,0,0,0,0,0,0,0,0,0,0,0,0,0,0,0,0,0,0,0,0,0,0,0.3077,0.3077,0,0.3056,0.3056,0.3056,0.3069,0.307,0.307,0.3071,0.3048,0.3047,0.3046,0,0,0,0,0,0,0,0,0,0,0,0,0,0.3127,0.3126,0.3077,0.3077,0.3076,0.3056,0.3056,0.3056,0.3069,0.307,0.307,0.3071,0.3049,0.3047,0.3046,0,0,0,0,0,0,0,0,0,0,0,0,0,0.3106,0.3126,0.3077,0.3081,0.3081,0.3056,0.3056,0.3056,0.3069,0.307,0.3071,0.3071,0.3049,0.3047,0.3046,0.3016,0,0,0.304,0.3039,0,0,0,0,0,0,0,0,0.3107,0.3104,0.308,0.308,0.308,0.3066,0.3066,0.3042,0.3068,0.3073,0.3071,0.3072,0.3053,0.3051,0.3045,0.3015,0.3014,0.304,0.3039,0.3038,0.3038,0,0,0,0,0,0,0,0.3108,0.3105,0.3069,0.308,0.308,0.3083,0.3081,0.3061,0.3058,0.3073,0.3074,0.3071,0.3054,0.3047,0.3045,0.3014,0.304,0.3039,0.3037,0.3037,0.2959,0.2958,0,0,0,0,0,0,0.311,0.3106,0.3069,0.3068,0.3096,0.3081,0.3079,0.307,0.3059,0.3058,0.307,0.3072,0.305,0.3047,0.3044,0.3009,0.3038,0.3037,0.3036,0.296,0.2959,0.2958,0,0,0,0,0,0,0.3111,0.3106,0.307,0.3087,0.3083,0.308,0.3069,0.3069,0.3062,0.3057,0.3056,0.3064,0.305,0.3047,0.3023,0.3009,0.3036,0.3034,0.2962,0.296,0.2959,0.2939,0,0,0,0,0,0,0.3112,0.3107,0.3095,0.3087,0.3082,0.305,0.3068,0.3068,0.3059,0.3061,0.3051,0.305,0.3051,0.3026,0.3022,0.3007,0.3033,0.2963,0.2961,0.2959,0.2941,0.2937,0.2934,0,0,0,0,0,0.3114,0.309,0.3095,0.309,0.3068,0.3049,0.3046,0.3048,0.3058,0.3047,0.3044,0.305,0.3011,0.3023,0.3019,0.3003,0.2964,0.2961,0.2959,0.2943,0.2938,0.2934,0,0,0,0,0,0,0.3096,0.3089,0.3094,0.3067,0.3059,0.3051,0.3037,0.3042,0.303,0.3032,0.3035,0.3032,0.3008,0.3003,0.3017,0.2974,0.2989,0.2986,0.2978,0.2974,0.297,0.2971,0.3031,0,0,0,0,0,0.3089,0.3075,0.3069,0.3046,0.3041,0.304,0.3032,0.3034,0.3025,0.3021,0.3016,0.3007,0.2993,0.2983,0.2969,0.2941,0.2939,0.2928,0.2924,0.2921,0.2918,0.2903,0.2898,0.2951,0.2951,0.2951,0,0,0.3074,0.3069,0.3059,0.3042,0.3036,0.3021,0.3037,0.302,0.3008,0.3018,0.2996,0.2992,0.2982,0.2956,0.2945,0.2952,0.2903,0.2918,0.2916,0.2915,0.29,0.2895,0.2891,0.2949,0.2949,0.295,0,0,0.3039,0.3034,0.3014,0.3008,0.2998,0.2998,0.2993,0.2985,0.2983,0.2961,0.2969,0.2955,0.2931,0.2923,0.2916,0.288,0.2886,0.2876,0.2857,0.2842,0.2838,0.2834,0.2821,0.2816,0.2873,0.2873,0.2873,0,0.3022,0.2999,0.3003,0.2985,0.2978,0.2988,0.2968,0.2961,0.2948,0.2942,0.2951,0.2921,0.2914,0.2887,0.2879,0.2873,0.2867,0.2877,0.2838,0.2835,0.2831,0.2819,0.2814,0.2872,0.2872,0.2872,0.2872,0,0.2978,0.2963,0.2948,0.2935,0.2926,0.2908,0.2908,0.2899,0.2902,0.2901,0.2878,0.2872,0.2857,0.2851,0.2854,0.2825,0.2829,0.2838,0.2853,0.2825,0.2813,0.2809,0.287,0.287,0.2871,0.2871,0,0,0.293,0.2921,0.2915,0.291,0.2901,0.2889,0.2871,0.2858,0.285,0.2841,0.2825,0.2805,0.2814,0.2806,0.2808,0.2795,0.2767,0.2805,0.2805,0.2798,0.2735,0.2728,0.2722,0.2772,0.2771,0.277,0.2735,0,0.2894,0.2863,0.2867,0.2837,0.2823,0.2833,0.2817,0.281,0.2809,0.2797,0.2795,0.278,0.2793,0.2788,0.2776,0.2773,0.2754,0.2776,0.2757,0.2757,0.2759,0.2716,0.2708,0.2676,0.2731,0.273,0.273,0,0.2848,0.2838,0.2807,0.2802,0.2796,0.2782,0.277,0.2759,0.2751,0.2751,0.2743,0.2748,0.273,0.2746,0.2722,0.2736,0.2729,0.2727,0.2726,0.2723,0.2741,0.2712,0.2665,0.266,0.2722,0.2723,0.2724,0,0.2816,0.2795,0.2774,0.2769,0.2762,0.2752,0.2748,0.2742,0.2734,0.2724,0.2719,0.2707,0.27,0.2691,0.2692,0.2704,0.2667,0.2683,0.2666,0.2666,0.2657,0.2658,0.2608,0.2654,0.2654,0.2654,0.2654,0,0.2775,0.2756,0.2759,0.2746,0.2725,0.2729,0.2708,0.2706,0.2701,0.2687,0.2695,0.2683,0.2686,0.2673,0.2675,0.2654,0.2651,0.265,0.2651,0.2649,0.2649,0.2644,0.2646,0.2653,0.2653,0.2653,0.2653,0,0.2734,0.2736,0.2714,0.2709,0.2708,0.2693,0.2689,0.2677,0.2677,0.266,0.2656,0.2656,0.2642,0.2643,0.2626,0.2627,0.2602,0.2605,0.2605,0.2605,0.2588,0.259,0.2533,0.2526,0.2576,0.2576,0.2576,0,0.2708,0.2693,0.2688,0.268,0.2676,0.2663,0.2655,0.266,0.2651,0.2642,0.2631,0.2618,0.2608,0.2585,0.2583,0.2571,0.2574,0.2555,0.2572,0.2571,0.2573,0.2574,0.2572,0.2551,0.255,0.255,0.255,0,0.2661,0.2663,0.2651,0.2641,0.2632,0.2623,0.2616,0.2609,0.2613,0.2603,0.2589,0.2581,0.2565,0.2552,0.2541,0.2537,0.2544,0.2545,0.254,0.2538,0.2538,0.2537,0.2595,0.2545,0.2546,0.2546,0.2546,0.2547,0.2626,0.2614,0.2609,0.2596,0.2591,0.2584,0.2573,0.2572,0.2561,0.2549,0.2552,0.2536,0.253,0.2516,0.2511,0.2499,0.2506,0.2499,0.2497,0.2495,0.2493,0.2541,0.2497,0.2497,0.2497,0.2497,0.2497,0,0.2579,0.2577,0.2565,0.2555,0.2545,0.2554,0.2546,0.2537,0.2524,0.2518,0.2508,0.2492,0.248,0.2478,0.2466,0.2456,0.2459,0.2453,0.2453,0.2453,0.2488,0.2493,0.2451,0.2451,0.2451,0.2451,0.2451,0.2451,0.2553,0.2534,0.2535,0.2513,0.2511,0.2496,0.2491,0.2485,0.248,0.2462,0.2452,0.2451,0.2447,0.2435,0.2424,0.2424,0.2419,0.2412,0.2412,0.2445,0.245,0.2454,0.2459,0.2411,0.2411,0.2378,0.2378,0.2377]}]]